SCP
0 0 0 0 0 0 0 0 0 0 0 0 0 0 0 0 0 0 -0 -0 -0 0 0 0 0 0 0 0 0 0 0 0 0 0 0 0 0 0 0 0 0 0 0 0
0 0 0 0 0 0 0 0 0 0 0 0 0 0 0 0 0 0 0 -0 0 0 0 0 0 0 0 0 0 0 0 0 0 0 0 0 0 0 0 0 0 0 0 0
0 0 0 0 0 0 0 0 0 0 0 0 0 0 0 0 0 0 0 0 0 0 0 0 0 0 0 0 0 0 0 0 0 0 0 0 0 0 0 0 0 0 0 0
0 0 0 0 0 0 0 0 0 0 0 0 0 0 0 0 0 0 0 0 0 0 0 0 0 0 0 0 0 0 0 0 0 0 0 0 0 0 0 0 0 0 0 0
0 0 0 0 0 0 0 0 0 0 0 0 0 0 0 0 0 0 0 0 0 0 0 0 0 0 0 0 0 0 0 0 0 0 0 0 0 0 0 0 0 0 0 0
0 0 0 0 0 0 0 0 0 0 0 0 0 0 0 0 0 0 0 0 0 0 0 0 0 0 0 0 0 0 0 0 0 0 0 0 0 0 0 0 0 0 0 0
0 0 0 0 0 0 0 0 0 0 0 0 0 0 0 0 0 0 0 0 0 0 0 0 0 0 0 0 0 0 0 0 0 -0 -0 0 0 0 0 0 0 0 0 0
0 0 0 0 0 0 0 0 0 0 0 0 0 0 0 0 0 0 0 0 0 0 0 0 0 0 0 0 0 0 0 0 0 0 0 0 0 0 0 0 0 0 0 0
0 0 0 0 0 0 0 0 0 0 0 0 0 0 0 0 0 0 0 0 0 0 0 0 0 0 0 0 0 0 0 0 0 0 0 0 0 0 0 0 0 0 0 -0
0 0 0 0 0 0 0 0 0 0 0 0 0 0 0 0 0 0 0 0 0 0 0 0 0 0 -0 -0 -0 0 0 0 -0 0 0 0 0 0 0 0 0 0 0 0
0 0 0 0 0 0 0 0 0 0 0 0 0 0 0 0 0 0 0 -0 0 0 0 0 -0 -0 -0 -0 -0 0 0 0 0 0 0 0 0 0 0 0 0 0 0 0
0 0 0 0 0 0 0 0 0 0 0 0 0 0 -0 -0 -0 0 0 0 0 0 -0 -0 -0 -0 -0 0 0 0 0 0 0 0 0 0 0 0 0 0 0 0 0 0
0 0 0 0 0 0 0 0 0 0 0 0 0 0 -0 0 0 0 0 0 0 0 0 0 0 0 0 0 0 0 0 0 0 0 0 0 0 0 0 0 0 0 0 0
0 0 0 0 0 0 0 0 0 0 0 0 0 0 0 0 0 0 0 0 0 0 0 0 0 0 0 0 0 0 0 0 0 0 0 0 0 0 0 0 0 0 0 0
0 0 0 0 0 0 0 0 0 0 0 0 0 0 0 0 0 0 0 0 0 0 0 0 0 0 0 0 0 0 0 0 0 0 0 0 0 0 0 0 0 0 0 0
0 0 0 0 0 0 0 0 0 0 0 0 0 0 0 0 0 0 0 0 0 0 0 0 0 0 0 0 0 0 0 0 0 0 0 0 0 0 0 0 0 0 0 0
0 0 0 0 0 0 0 0 0 0 0 0 0 0 0 0 0 0 0 0 0 0 0 0 0 0 0 0 0 0 0 0 0 0 0 0 0 0 0 0 0 0 0 0
0 0 0 0 0 0 0 0 0 0 0 0 0 0 0 0 0 0 0 0 0 0 0 0 0 0 0 0 0 0 0 0 0 0 0 0 0 0 0 0 0 0 0 0
0 0 0 0 0 0 0 0 0 0 0 0 0 0 0 0 0 0 0 0 0 0 0 0 0 0 0 0 0 0 0 0 0 0 0 0 0 0 0 0 0 -0 -0 0
0 0 0 0 0 0 0 0 0 0 0 0 0 0 0 0 0 0 0 0 0 0 0 0 0 0 0 -0 -0 -0 -0 -0 -0 0 -0 -0 -0 -0 -0 -0 0 -0 -0 -0
0 0 0 0 0 0 0 0 0 0 0 0 0 0 0 0 0 0 0 0 0 0 0 0 -0 -0 -0 -0 -0 -0 -0 -0 -0 0 -0 0 0 -0 -0 -0 -0 0 -0 -0
0 0 0 0 0 0 0 0 0 0 0 0 0 0 0 0 0 0 0 0 0 0 -0 -0 -0 -0 -0 -0 -0 0 0 0 -0 -0 0 0 0 0 -0 -0 0 0 0 0
0 0 0 0 0 0 0 0 0 0 0 0 0 0 0 0 0 0 0 0 0 -0 0 0 -0 -0 0 -0 -0 -0 -0 -0 0 -0 -0 0 0 0 0 -0 0 0 0 0
0 0 0 0 0 0 0 0 0 0 0 -0 -0 -0 0 -0 -0 0 0 0 0 0 0 0 0 -0 -0 -0 -0 -0 -0 -0 -0 -0 -0 -0 -0 -0 -0 -0 -0 -0 -0 -0
0 0 0 0 0 0 0 0 0 -0 -0 -0 -0 -0 -0 -0 -0 0 0 0 0 0 0 0 0 0 -0 -0 -0 -0 -0 -0 -0 -0 -0 -0 -0 -0 -0 -0 -0 -0 -0 -0
0 0 0 0 0 0 0 0 -0 -0 0 -0 -0 -0 -0 -0 0 0 0 0 0 0 0 0 -0 -0 -0 -0 -0 -0 -0 -0 0 -0 -0 -0 -0 0 -0 -0 -0 0 0 0
Wind_Speed_500mb
14 9 17 32 18 15 8 17 35 27 13 15 18 46 38 37 39 53 63 51 44 23 59 65 61 52 43 31 19 10 9 16 23 26 27 34 42 43 45 51 55 58 60 57
4 25 23 17 16 24 26 31 35 40 15 12 18 43 44 46 40 52 52 48 28 51 40 54 48 40 31 27 20 12 5 8 18 26 30 32 37 41 45 47 50 59 66 68
19 12 17 20 22 27 28 32 31 30 9 10 14 29 41 26 37 40 47 54 37 65 44 42 42 39 28 25 20 15 14 14 15 23 32 35 36 39 41 43 47 49 58 69
18 37 31 27 20 17 21 7 7 6 10 15 12 22 60 19 22 14 33 12 63 43 41 57 46 40 33 31 23 19 15 15 20 24 29 36 41 47 48 51 52 52 49 57
17 3 17 28 33 10 3 5 7 1 2 8 8 7 22 35 34 19 3 49 64 59 44 48 51 41 35 29 29 26 22 22 25 26 31 37 40 43 48 51 56 53 53 52
17 4 12 13 8 9 14 6 2 4 4 6 8 15 10 11 10 11 34 31 48 58 55 50 46 37 34 30 29 32 33 34 32 34 34 35 41 45 47 50 54 56 56 54
7 10 9 12 8 6 8 9 7 7 7 13 6 5 8 25 32 29 33 45 26 37 57 57 48 43 40 41 39 40 38 32 37 39 39 39 39 44 47 49 55 60 60 57
10 11 16 10 18 14 10 14 9 12 6 8 8 7 11 30 50 60 54 48 54 31 59 54 49 44 44 46 42 39 38 37 41 41 42 42 43 44 46 47 50 54 61 60
11 10 4 12 9 17 10 7 4 4 7 3 7 5 21 21 23 34 39 42 37 46 40 51 46 43 46 45 39 40 39 40 42 45 45 45 46 47 48 46 46 48 54 62
11 13 7 6 12 5 12 15 5 3 7 8 7 8 3 2 5 19 18 29 27 23 45 41 39 43 42 33 34 41 44 46 45 45 47 47 47 46 49 49 49 48 47 55
10 10 8 12 15 20 9 9 4 7 5 5 4 5 4 8 13 14 18 27 21 36 30 35 33 31 33 35 41 43 43 44 46 48 47 47 47 45 44 47 51 50 48 52
4 7 14 23 9 18 20 21 19 6 7 4 4 3 10 14 10 28 25 22 29 29 30 36 38 39 40 40 40 41 41 42 44 45 44 43 44 46 48 47 49 50 49 47
12 6 5 3 8 3 14 15 22 20 6 10 6 5 20 15 29 25 27 30 32 30 30 33 37 39 38 36 36 37 38 40 39 39 43 45 47 48 49 49 47 46 47 47
20 8 10 8 5 9 10 16 19 19 6 7 11 14 13 27 22 25 29 32 29 27 24 22 26 26 27 30 32 34 35 39 39 41 46 50 53 53 53 52 50 47 45 41
12 10 10 13 7 7 9 5 16 23 24 13 11 18 21 17 21 26 25 22 22 22 23 25 27 28 29 33 35 37 39 39 41 44 51 54 53 54 53 55 57 52 49 48
6 5 3 5 21 7 8 6 4 5 5 15 30 20 21 29 27 22 18 17 21 24 24 25 30 30 33 37 41 40 40 41 43 50 54 54 55 56 59 61 62 58 57 57
12 9 7 7 14 9 11 5 11 11 14 12 11 13 20 18 19 17 19 18 18 18 18 22 31 38 39 42 44 43 42 42 46 50 53 55 57 59 62 64 66 71 72 65
12 9 2 4 13 8 5 9 15 28 13 12 25 24 21 27 27 24 17 16 13 13 15 19 24 27 34 35 38 41 46 51 54 56 54 53 55 55 57 62 67 68 73 76
12 8 3 6 9 7 8 9 10 8 6 6 17 23 36 39 35 22 15 15 17 15 19 18 19 24 23 33 37 43 46 49 53 57 56 54 54 52 54 58 61 63 66 70
15 8 6 5 7 12 5 7 13 8 3 10 14 25 35 34 6 7 18 18 21 20 19 20 19 21 25 29 36 43 44 46 48 49 50 50 53 54 54 53 57 56 59 62
10 5 13 5 3 1 1 9 7 8 9 23 18 14 23 12 5 38 28 25 24 21 19 16 18 23 27 28 33 44 40 39 34 34 40 43 48 53 54 52 51 52 53 56
17 12 6 5 4 9 3 1 10 14 26 29 22 13 30 38 46 38 33 32 27 22 13 14 18 22 22 25 23 30 39 28 26 30 35 42 45 50 52 54 55 56 57 59
2 9 9 3 5 6 13 20 27 22 38 25 32 36 49 53 45 39 35 30 26 19 15 18 19 19 19 17 16 23 28 26 26 30 37 40 44 48 52 56 60 64 63 64
5 6 8 8 8 10 19 23 24 28 32 29 32 39 40 45 42 38 32 27 23 17 15 16 18 23 25 24 23 23 21 25 30 34 37 40 44 49 54 59 64 71 74 66
7 10 13 9 15 22 16 24 31 32 32 35 33 36 39 46 42 37 33 27 20 17 19 21 27 29 29 28 28 26 23 27 31 35 38 41 43 47 51 57 56 61 64 58
1 10 8 8 36 15 35 38 33 36 39 39 43 46 41 40 41 35 31 25 23 25 25 24 25 23 24 22 23 27 31 29 30 33 36 39 40 41 43 44 45 46 50 51
Wind_Direction_500mb
178 171 200 213 206 233 251 265 272 273 251 302 292 280 290 288 293 296 296 303 325 124 136 133 130 133 137 135 147 168 234 279 292 296 288 276 277 276 264 258 257 251 249 250
307 237 227 210 216 240 247 259 267 282 280 315 302 283 288 284 283 275 287 287 139 122 128 122 122 128 126 109 94 86 50 313 309 311 315 309 301 290 286 279 267 261 257 253
202 223 203 208 223 241 245 251 270 267 339 197 296 288 285 285 266 281 284 286 181 164 150 116 109 102 99 89 65 46 24 356 333 316 312 309 303 297 294 287 282 272 266 259
237 228 240 247 243 244 267 339 42 12 17 298 88 297 294 282 291 285 299 94 122 126 124 124 112 100 86 74 66 58 52 25 358 335 323 321 320 315 315 311 302 291 280 269
223 141 213 233 241 178 227 123 109 118 38 354 175 245 270 333 310 316 122 118 121 128 122 104 105 91 78 72 63 36 33 29 2 347 332 322 317 313 312 313 309 306 303 294
246 236 171 214 155 151 139 96 120 79 125 261 188 197 316 3 353 32 81 87 116 115 105 97 84 86 73 56 44 27 23 17 2 353 343 333 322 316 315 317 316 312 313 312
318 216 182 145 147 154 104 81 307 321 230 239 339 224 300 351 9 311 122 101 51 90 91 84 74 59 45 36 32 14 13 6 2 356 349 342 331 324 320 322 323 319 315 315
188 303 163 185 200 182 159 160 182 230 234 282 304 248 20 47 27 34 80 92 98 67 80 71 62 48 36 28 20 7 6 5 3 357 352 346 340 332 328 322 322 321 314 312
191 246 277 173 154 140 155 185 178 293 239 344 227 107 55 24 46 42 44 48 58 79 69 66 50 35 24 19 10 6 9 7 1 357 354 350 346 342 336 328 320 318 319 313
207 252 242 168 106 143 152 153 109 123 228 239 257 89 145 125 79 104 72 68 58 67 61 51 41 27 17 14 11 10 16 13 8 4 358 354 351 348 344 339 329 319 320 314
148 151 273 139 201 171 151 187 150 161 207 244 295 171 219 242 147 121 124 114 91 64 65 56 39 27 21 18 19 15 15 11 8 4 359 354 354 352 348 348 343 334 322 315
312 151 222 214 186 181 192 199 181 156 224 225 105 215 191 211 169 149 134 107 78 59 32 23 17 16 17 19 16 18 17 17 15 9 2 1 359 359 358 353 344 340 335 325
157 188 216 269 344 225 194 210 203 196 119 200 175 204 188 110 124 108 96 83 71 57 45 30 20 18 16 17 14 17 20 23 17 13 13 13 12 11 8 4 358 349 344 338
147 170 225 231 182 151 170 200 188 171 170 208 196 151 178 127 130 111 96 90 78 61 52 44 27 29 22 22 19 26 29 29 25 26 28 25 25 24 22 19 15 10 4 353
134 197 219 259 190 184 195 179 220 201 207 186 194 138 133 114 110 101 95 82 72 63 54 44 30 31 27 29 32 38 39 37 34 36 37 32 30 30 29 30 31 28 26 22
129 181 28 280 266 259 229 220 94 192 51 73 120 114 129 124 108 85 72 63 55 43 40 39 33 37 39 37 42 44 43 41 41 41 42 37 35 33 36 37 36 35 37 39
144 145 157 231 203 263 298 225 120 113 45 139 170 160 141 117 104 97 92 79 65 47 49 53 52 52 50 51 49 48 47 47 46 45 42 42 40 39 38 39 41 42 42 41
151 121 104 256 121 215 102 47 110 110 67 77 110 130 129 125 117 102 99 106 99 75 81 74 63 57 58 57 57 55 53 51 50 48 44 44 42 42 42 43 42 42 46 45
126 114 203 183 203 102 161 153 155 149 184 340 124 123 126 125 109 98 105 120 125 107 92 91 87 79 80 66 62 54 50 49 47 44 42 40 41 41 43 44 46 45 44 45
203 188 168 187 172 208 239 145 127 114 252 177 132 159 157 158 162 147 143 133 120 118 107 103 108 94 81 72 59 58 46 44 44 41 40 39 41 40 41 42 44 44 45 45
179 190 210 190 199 240 83 134 117 94 214 149 149 149 174 181 175 151 147 132 125 113 110 111 100 90 78 71 63 56 49 41 34 40 40 39 41 42 42 44 44 45 45 45
180 173 175 143 113 251 23 130 185 139 122 135 132 156 152 143 136 136 137 133 125 118 114 94 86 83 79 74 70 67 56 43 29 33 40 39 37 38 41 43 43 43 42 42
176 176 157 166 174 88 59 105 133 138 141 136 136 142 141 140 140 140 137 135 129 124 102 81 79 83 81 76 68 66 58 46 44 43 42 42 39 35 34 36 38 37 36 35
92 141 96 129 141 117 106 119 146 145 142 149 146 146 148 140 146 143 144 140 138 127 101 89 97 97 85 74 67 65 65 55 52 53 48 44 42 39 36 35 35 33 32 33
191 117 131 77 127 125 143 147 152 148 155 151 154 158 158 147 145 149 147 145 142 132 115 107 96 95 86 79 73 69 66 64 55 55 51 47 44 41 39 35 35 29 32 31
256 153 163 208 173 153 160 166 169 161 158 160 154 151 151 153 148 151 143 140 135 127 116 106 96 93 88 84 77 65 57 57 52 49 43 40 34 29 30 30 30 30 27 30
Wind_Speed_850mb
14 9 17 32 18 15 8 17 35 27 13 15 18 46 38 37 39 53 63 51 44 23 59 65 61 52 43 31 19 10 9 16 23 26 27 34 42 43 45 51 55 58 60 57
4 25 23 17 16 24 26 31 35 40 15 12 18 43 44 46 40 52 52 48 28 51 40 54 48 40 31 27 20 12 5 8 18 26 30 32 37 41 45 47 50 59 66 68
19 12 17 20 22 27 28 32 31 30 9 10 14 29 41 26 37 40 47 54 37 65 44 42 42 39 28 25 20 15 14 14 15 23 32 35 36 39 41 43 47 49 58 69
18 37 31 27 20 17 21 7 7 6 10 15 12 22 60 19 22 14 33 12 63 43 41 57 46 40 33 31 23 19 15 15 20 24 29 36 41 47 48 51 52 52 49 57
17 3 17 28 33 10 3 5 7 1 2 8 8 7 22 35 34 19 3 49 64 59 44 48 51 41 35 29 29 26 22 22 25 26 31 37 40 43 48 51 56 53 53 52
17 4 12 13 8 9 14 6 2 4 4 6 8 15 10 11 10 11 34 31 48 58 55 50 46 37 34 30 29 32 33 34 32 34 34 35 41 45 47 50 54 56 56 54
7 10 9 12 8 6 8 9 7 7 7 13 6 5 8 25 32 29 33 45 26 37 57 57 48 43 40 41 39 40 38 32 37 39 39 39 39 44 47 49 55 60 60 57
10 11 16 10 18 14 10 14 9 12 6 8 8 7 11 30 50 60 54 48 54 31 59 54 49 44 44 46 42 39 38 37 41 41 42 42 43 44 46 47 50 54 61 60
11 10 4 12 9 17 10 7 4 4 7 3 7 5 21 21 23 34 39 42 37 46 40 51 46 43 46 45 39 40 39 40 42 45 45 45 46 47 48 46 46 48 54 62
11 13 7 6 12 5 12 15 5 3 7 8 7 8 3 2 5 19 18 29 27 23 45 41 39 43 42 33 34 41 44 46 45 45 47 47 47 46 49 49 49 48 47 55
10 10 8 12 15 20 9 9 4 7 5 5 4 5 4 8 13 14 18 27 21 36 30 35 33 31 33 35 41 43 43 44 46 48 47 47 47 45 44 47 51 50 48 52
4 7 14 23 9 18 20 21 19 6 7 4 4 3 10 14 10 28 25 22 29 29 30 36 38 39 40 40 40 41 41 42 44 45 44 43 44 46 48 47 49 50 49 47
12 6 5 3 8 3 14 15 22 20 6 10 6 5 20 15 29 25 27 30 32 30 30 33 37 39 38 36 36 37 38 40 39 39 43 45 47 48 49 49 47 46 47 47
20 8 10 8 5 9 10 16 19 19 6 7 11 14 13 27 22 25 29 32 29 27 24 22 26 26 27 30 32 34 35 39 39 41 46 50 53 53 53 52 50 47 45 41
12 10 10 13 7 7 9 5 16 23 24 13 11 18 21 17 21 26 25 22 22 22 23 25 27 28 29 33 35 37 39 39 41 44 51 54 53 54 53 55 57 52 49 48
6 5 3 5 21 7 8 6 4 5 5 15 30 20 21 29 27 22 18 17 21 24 24 25 30 30 33 37 41 40 40 41 43 50 54 54 55 56 59 61 62 58 57 57
12 9 7 7 14 9 11 5 11 11 14 12 11 13 20 18 19 17 19 18 18 18 18 22 31 38 39 42 44 43 42 42 46 50 53 55 57 59 62 64 66 71 72 65
12 9 2 4 13 8 5 9 15 28 13 12 25 24 21 27 27 24 17 16 13 13 15 19 24 27 34 35 38 41 46 51 54 56 54 53 55 55 57 62 67 68 73 76
12 8 3 6 9 7 8 9 10 8 6 6 17 23 36 39 35 22 15 15 17 15 19 18 19 24 23 33 37 43 46 49 53 57 56 54 54 52 54 58 61 63 66 70
15 8 6 5 7 12 5 7 13 8 3 10 14 25 35 34 6 7 18 18 21 20 19 20 19 21 25 29 36 43 44 46 48 49 50 50 53 54 54 53 57 56 59 62
10 5 13 5 3 1 1 9 7 8 9 23 18 14 23 12 5 38 28 25 24 21 19 16 18 23 27 28 33 44 40 39 34 34 40 43 48 53 54 52 51 52 53 56
17 12 6 5 4 9 3 1 10 14 26 29 22 13 30 38 46 38 33 32 27 22 13 14 18 22 22 25 23 30 39 28 26 30 35 42 45 50 52 54 55 56 57 59
2 9 9 3 5 6 13 20 27 22 38 25 32 36 49 53 45 39 35 30 26 19 15 18 19 19 19 17 16 23 28 26 26 30 37 40 44 48 52 56 60 64 63 64
5 6 8 8 8 10 19 23 24 28 32 29 32 39 40 45 42 38 32 27 23 17 15 16 18 23 25 24 23 23 21 25 30 34 37 40 44 49 54 59 64 71 74 66
7 10 13 9 15 22 16 24 31 32 32 35 33 36 39 46 42 37 33 27 20 17 19 21 27 29 29 28 28 26 23 27 31 35 38 41 43 47 51 57 56 61 64 58
1 10 8 8 36 15 35 38 33 36 39 39 43 46 41 40 41 35 31 25 23 25 25 24 25 23 24 22 23 27 31 29 30 33 36 39 40 41 43 44 45 46 50 51
Wind_Direction_850mb
178 171 200 213 206 233 251 265 272 273 251 302 292 280 290 288 293 296 296 303 325 124 136 133 130 133 137 135 147 168 234 279 292 296 288 276 277 276 264 258 257 251 249 250
307 237 227 210 216 240 247 259 267 282 280 315 302 283 288 284 283 275 287 287 139 122 128 122 122 128 126 109 94 86 50 313 309 311 315 309 301 290 286 279 267 261 257 253
202 223 203 208 223 241 245 251 270 267 339 197 296 288 285 285 266 281 284 286 181 164 150 116 109 102 99 89 65 46 24 356 333 316 312 309 303 297 294 287 282 272 266 259
237 228 240 247 243 244 267 339 42 12 17 298 88 297 294 282 291 285 299 94 122 126 124 124 112 100 86 74 66 58 52 25 358 335 323 321 320 315 315 311 302 291 280 269
223 141 213 233 241 178 227 123 109 118 38 354 175 245 270 333 310 316 122 118 121 128 122 104 105 91 78 72 63 36 33 29 2 347 332 322 317 313 312 313 309 306 303 294
246 236 171 214 155 151 139 96 120 79 125 261 188 197 316 3 353 32 81 87 116 115 105 97 84 86 73 56 44 27 23 17 2 353 343 333 322 316 315 317 316 312 313 312
318 216 182 145 147 154 104 81 307 321 230 239 339 224 300 351 9 311 122 101 51 90 91 84 74 59 45 36 32 14 13 6 2 356 349 342 331 324 320 322 323 319 315 315
188 303 163 185 200 182 159 160 182 230 234 282 304 248 20 47 27 34 80 92 98 67 80 71 62 48 36 28 20 7 6 5 3 357 352 346 340 332 328 322 322 321 314 312
191 246 277 173 154 140 155 185 178 293 239 344 227 107 55 24 46 42 44 48 58 79 69 66 50 35 24 19 10 6 9 7 1 357 354 350 346 342 336 328 320 318 319 313
207 252 242 168 106 143 152 153 109 123 228 239 257 89 145 125 79 104 72 68 58 67 61 51 41 27 17 14 11 10 16 13 8 4 358 354 351 348 344 339 329 319 320 314
148 151 273 139 201 171 151 187 150 161 207 244 295 171 219 242 147 121 124 114 91 64 65 56 39 27 21 18 19 15 15 11 8 4 359 354 354 352 348 348 343 334 322 315
312 151 222 214 186 181 192 199 181 156 224 225 105 215 191 211 169 149 134 107 78 59 32 23 17 16 17 19 16 18 17 17 15 9 2 1 359 359 358 353 344 340 335 325
157 188 216 269 344 225 194 210 203 196 119 200 175 204 188 110 124 108 96 83 71 57 45 30 20 18 16 17 14 17 20 23 17 13 13 13 12 11 8 4 358 349 344 338
147 170 225 231 182 151 170 200 188 171 170 208 196 151 178 127 130 111 96 90 78 61 52 44 27 29 22 22 19 26 29 29 25 26 28 25 25 24 22 19 15 10 4 353
134 197 219 259 190 184 195 179 220 201 207 186 194 138 133 114 110 101 95 82 72 63 54 44 30 31 27 29 32 38 39 37 34 36 37 32 30 30 29 30 31 28 26 22
129 181 28 280 266 259 229 220 94 192 51 73 120 114 129 124 108 85 72 63 55 43 40 39 33 37 39 37 42 44 43 41 41 41 42 37 35 33 36 37 36 35 37 39
144 145 157 231 203 263 298 225 120 113 45 139 170 160 141 117 104 97 92 79 65 47 49 53 52 52 50 51 49 48 47 47 46 45 42 42 40 39 38 39 41 42 42 41
151 121 104 256 121 215 102 47 110 110 67 77 110 130 129 125 117 102 99 106 99 75 81 74 63 57 58 57 57 55 53 51 50 48 44 44 42 42 42 43 42 42 46 45
126 114 203 183 203 102 161 153 155 149 184 340 124 123 126 125 109 98 105 120 125 107 92 91 87 79 80 66 62 54 50 49 47 44 42 40 41 41 43 44 46 45 44 45
203 188 168 187 172 208 239 145 127 114 252 177 132 159 157 158 162 147 143 133 120 118 107 103 108 94 81 72 59 58 46 44 44 41 40 39 41 40 41 42 44 44 45 45
179 190 210 190 199 240 83 134 117 94 214 149 149 149 174 181 175 151 147 132 125 113 110 111 100 90 78 71 63 56 49 41 34 40 40 39 41 42 42 44 44 45 45 45
180 173 175 143 113 251 23 130 185 139 122 135 132 156 152 143 136 136 137 133 125 118 114 94 86 83 79 74 70 67 56 43 29 33 40 39 37 38 41 43 43 43 42 42
176 176 157 166 174 88 59 105 133 138 141 136 136 142 141 140 140 140 137 135 129 124 102 81 79 83 81 76 68 66 58 46 44 43 42 42 39 35 34 36 38 37 36 35
92 141 96 129 141 117 106 119 146 145 142 149 146 146 148 140 146 143 144 140 138 127 101 89 97 97 85 74 67 65 65 55 52 53 48 44 42 39 36 35 35 33 32 33
191 117 131 77 127 125 143 147 152 148 155 151 154 158 158 147 145 149 147 145 142 132 115 107 96 95 86 79 73 69 66 64 55 55 51 47 44 41 39 35 35 29 32 31
256 153 163 208 173 153 160 166 169 161 158 160 154 151 151 153 148 151 143 140 135 127 116 106 96 93 88 84 77 65 57 57 52 49 43 40 34 29 30 30 30 30 27 30